TimeHST,TemperatureF,Dew PointF,Humidity,Sea Level PressureIn,VisibilityMPH,Wind Direction,Wind SpeedMPH,Gust SpeedMPH,PrecipitationIn,Events,Conditions,WindDirDegrees,DateUTC
12:53 AM,64.0,62.1,93,29.99,10.0,Variable,3.5,-,N/A,,Mostly Cloudy,0,2013-05-07 10:53:00
1:53 AM,64.0,62.1,93,29.96,10.0,NE,3.5,-,N/A,,Overcast,50,2013-05-07 11:53:00
2:53 AM,64.0,63.0,96,29.95,10.0,Calm,Calm,-,N/A,,Overcast,0,2013-05-07 12:53:00
3:53 AM,63.0,62.1,97,29.95,10.0,ENE,3.5,-,N/A,,Clear,60,2013-05-07 13:53:00
4:53 AM,62.1,62.1,100,29.96,10.0,ENE,3.5,-,N/A,,Clear,60,2013-05-07 14:53:00
5:53 AM,62.1,62.1,100,29.97,10.0,Calm,Calm,-,N/A,,Clear,0,2013-05-07 15:53:00
6:03 AM,60.8,60.8,100,29.95,10.0,Calm,Calm,-,N/A,,Partly Cloudy,0,2013-05-07 16:03:00
6:53 AM,63.0,63.0,100,29.99,10.0,Calm,Calm,-,N/A,,Clear,0,2013-05-07 16:53:00
7:53 AM,69.1,64.0,84,30.00,10.0,Calm,Calm,-,N/A,,Clear,0,2013-05-07 17:53:00
8:53 AM,72.0,64.0,76,30.01,10.0,South,5.8,-,N/A,,Clear,180,2013-05-07 18:53:00
9:53 AM,73.0,64.9,76,30.02,10.0,SSW,5.8,-,N/A,,Clear,210,2013-05-07 19:53:00
10:53 AM,75.9,66.0,71,30.01,10.0,SSW,8.1,-,N/A,,Clear,210,2013-05-07 20:53:00
11:53 AM,75.9,64.9,69,30.00,10.0,SSW,8.1,-,N/A,,Clear,200,2013-05-07 21:53:00
12:53 PM,78.1,64.0,62,29.99,10.0,SW,9.2,-,N/A,,Clear,230,2013-05-07 22:53:00
1:53 PM,78.1,64.0,62,29.98,10.0,WNW,8.1,-,N/A,,Clear,290,2013-05-07 23:53:00
2:53 PM,77.0,63.0,62,29.97,10.0,WNW,10.4,17.3,N/A,,Clear,290,2013-05-08 00:53:00
3:53 PM,77.0,63.0,62,29.96,10.0,WNW,11.5,-,N/A,,Clear,300,2013-05-08 01:53:00
4:53 PM,75.9,62.1,62,29.96,10.0,WNW,13.8,-,N/A,,Scattered Clouds,290,2013-05-08 02:53:00
5:53 PM,73.9,62.1,66,29.97,10.0,NW,13.8,-,N/A,,Clear,310,2013-05-08 03:53:00
6:17 PM,73.4,60.8,65,29.96,10.0,NW,12.7,-,N/A,,Partly Cloudy,310,2013-05-08 04:17:00
6:53 PM,72.0,61.0,68,29.99,10.0,NW,6.9,-,N/A,,Clear,310,2013-05-08 04:53:00
7:53 PM,69.1,61.0,75,30.00,10.0,NE,3.5,-,N/A,,Clear,40,2013-05-08 05:53:00
8:53 PM,66.9,61.0,81,30.01,10.0,Variable,4.6,-,N/A,,Clear,0,2013-05-08 06:53:00
9:53 PM,66.0,61.0,84,30.04,10.0,Variable,3.5,-,N/A,,Clear,0,2013-05-08 07:53:00
10:53 PM,64.9,61.0,87,30.04,10.0,Calm,Calm,-,N/A,,Clear,0,2013-05-08 08:53:00
11:53 PM,64.0,61.0,90,30.03,10.0,Calm,Calm,-,N/A,,Clear,0,2013-05-08 09:53:00